TYM228 UUWW-UKBB

Flight info

Callsign TYM228
Flight time 1h 18m
Altitude 38000
Route SOTOG3B SOTOG N181 NEMIP
Aircraft B763/H-SDE3FGHIM3RWXY/LB1

Departure

Time 2025-10-09 12:44
Airport Vnukovo International Airport (UUWW)

Arrival

Time 2025-10-09 14:03
Airport Boryspil International Airport (UKBB)
Time Latitude Longitude Altitude Speed Heading
2025-10-09 12:05 55.60378 37.28043 697 ft 0 kts 136°
2025-10-09 12:25 55.60389 37.28023 696 ft 2 kts 134°
2025-10-09 12:26 55.60410 37.27986 696 ft 2 kts 136°
2025-10-09 12:26 55.60434 37.27956 696 ft 2 kts 171°
2025-10-09 12:27 55.60462 37.27966 696 ft 2 kts 218°
2025-10-09 12:28 55.60493 37.28023 696 ft 2 kts 226°
2025-10-09 12:28 55.60515 37.28062 696 ft 2 kts 226°
2025-10-09 12:28 55.60524 37.28080 696 ft 0 kts 226°
2025-10-09 12:29 55.60525 37.28081 696 ft 0 kts 226°
2025-10-09 12:33 55.60515 37.28064 696 ft 4 kts 225°
2025-10-09 12:34 55.60437 37.27924 696 ft 9 kts 222°
2025-10-09 12:34 55.60321 37.27848 696 ft 8 kts 187°
2025-10-09 12:35 55.60204 37.27844 696 ft 8 kts 168°
2025-10-09 12:36 55.60069 37.27804 696 ft 7 kts 223°
2025-10-09 12:36 55.60020 37.27736 696 ft 10 kts 217°
2025-10-09 12:36 55.59910 37.27513 696 ft 14 kts 226°
2025-10-09 12:37 55.59752 37.27220 696 ft 18 kts 226°
2025-10-09 12:37 55.59573 37.26892 696 ft 15 kts 230°
2025-10-09 12:38 55.59486 37.26583 696 ft 13 kts 248°
2025-10-09 12:38 55.59411 37.26255 696 ft 16 kts 248°
2025-10-09 12:39 55.59320 37.25844 696 ft 19 kts 248°
2025-10-09 12:40 55.59148 37.25078 696 ft 24 kts 248°
2025-10-09 12:40 55.59082 37.24789 696 ft 26 kts 248°
2025-10-09 12:40 55.58922 37.24166 696 ft 29 kts 243°
2025-10-09 12:41 55.58798 37.23797 696 ft 10 kts 195°
2025-10-09 12:41 55.58674 37.23864 696 ft 5 kts 149°
2025-10-09 12:42 55.58672 37.23987 696 ft 7 kts 69°
2025-10-09 12:42 55.58818 37.24640 697 ft 81 kts 68°
2025-10-09 12:43 55.59542 37.27884 1140 ft 181 kts 69°
2025-10-09 12:43 55.60017 37.30036 2003 ft 194 kts 70°
2025-10-09 12:44 55.61591 37.37042 4278 ft 220 kts 73°
2025-10-09 12:44 55.61011 37.42052 5766 ft 225 kts 130°
2025-10-09 12:45 55.58743 37.46131 7072 ft 246 kts 150°
2025-10-09 12:45 55.55335 37.46046 8462 ft 274 kts 207°
2025-10-09 12:46 55.52549 37.41170 9791 ft 284 kts 221°
2025-10-09 12:46 55.49697 37.36131 11055 ft 304 kts 220°
2025-10-09 12:47 55.46672 37.30548 12328 ft 328 kts 231°
2025-10-09 12:47 55.45362 37.27219 12966 ft 338 kts 231°
2025-10-09 12:48 55.40551 37.17773 14872 ft 360 kts 206°
2025-10-09 12:48 55.35820 37.14497 16150 ft 374 kts 199°
2025-10-09 12:49 55.30932 37.11060 17387 ft 391 kts 206°
2025-10-09 12:49 55.26385 37.05609 18644 ft 405 kts 212°
2025-10-09 12:50 55.21630 37.00020 19897 ft 415 kts 206°
2025-10-09 12:50 55.16311 36.95956 21157 ft 423 kts 202°
2025-10-09 12:51 55.10856 36.91911 22400 ft 431 kts 201°
2025-10-09 12:51 55.08120 36.89904 23019 ft 435 kts 201°
2025-10-09 12:52 54.99712 36.83772 24936 ft 434 kts 201°
2025-10-09 12:52 54.94189 36.79763 26235 ft 432 kts 202°
2025-10-09 12:54 54.72427 36.62740 31694 ft 427 kts 217°
2025-10-09 12:56 54.56422 36.34847 36061 ft 380 kts 222°
2025-10-09 12:58 54.43567 36.12335 37125 ft 384 kts 223°
2025-10-09 13:00 54.26487 35.82737 37951 ft 391 kts 223°
2025-10-09 13:02 54.11998 35.58961 37922 ft 434 kts 220°
2025-10-09 13:04 53.91541 35.27652 37905 ft 440 kts 220°
2025-10-09 13:06 53.75709 35.03077 37908 ft 450 kts 220°
2025-10-09 13:08 53.54754 34.70948 37887 ft 455 kts 220°
2025-10-09 13:10 53.38305 34.46039 37890 ft 453 kts 220°
2025-10-09 13:12 53.17101 34.14333 37877 ft 458 kts 219°
2025-10-09 13:14 53.00416 33.89686 37887 ft 462 kts 219°
2025-10-09 13:16 52.80476 33.55902 35741 ft 436 kts 223°
2025-10-09 13:18 52.63842 33.27743 32214 ft 416 kts 221°
2025-10-09 13:21 52.45948 32.97820 27431 ft 401 kts 222°
2025-10-09 13:22 52.36339 32.81896 24765 ft 381 kts 223°
2025-10-09 13:22 52.32664 32.75836 23732 ft 370 kts 223°
2025-10-09 13:23 52.29113 32.69994 22715 ft 363 kts 223°
2025-10-09 13:24 52.23594 32.61836 21227 ft 353 kts 219°
2025-10-09 13:24 52.19786 32.56494 20324 ft 385 kts 219°
2025-10-09 13:24 52.17663 32.53521 19884 ft 420 kts 219°
2025-10-09 13:25 52.13083 32.47107 18928 ft 435 kts 219°
2025-10-09 13:25 52.08610 32.40856 17929 ft 424 kts 219°
2025-10-09 13:26 52.03867 32.35328 16950 ft 415 kts 213°
2025-10-09 13:26 51.99133 32.30189 15961 ft 409 kts 212°
2025-10-09 13:27 51.94423 32.25128 14978 ft 401 kts 212°
2025-10-09 13:28 51.87660 32.17904 13518 ft 394 kts 212°
2025-10-09 13:28 51.85325 32.15414 12994 ft 390 kts 212°
2025-10-09 13:28 51.80862 32.10674 12008 ft 383 kts 212°
2025-10-09 13:29 51.76468 32.06013 11852 ft 377 kts 212°
2025-10-09 13:29 51.72022 32.01309 11850 ft 385 kts 212°
2025-10-09 13:30 51.67564 31.96604 11860 ft 382 kts 212°
2025-10-09 13:30 51.63062 31.91866 11857 ft 383 kts 212°
2025-10-09 13:31 51.58614 31.87194 11849 ft 383 kts 212°
2025-10-09 13:32 51.51883 31.80144 11852 ft 383 kts 212°
2025-10-09 13:32 51.49652 31.77814 11855 ft 384 kts 212°
2025-10-09 13:32 51.45187 31.73158 11857 ft 384 kts 212°
2025-10-09 13:33 51.40705 31.68494 11853 ft 383 kts 212°
2025-10-09 13:33 51.36218 31.63838 11854 ft 384 kts 212°
2025-10-09 13:34 51.31739 31.59200 11855 ft 385 kts 212°
2025-10-09 13:34 51.27245 31.54559 11857 ft 385 kts 212°
2025-10-09 13:35 51.22722 31.49895 11860 ft 385 kts 212°
2025-10-09 13:36 51.15944 31.42932 11860 ft 385 kts 212°
2025-10-09 13:36 51.13701 31.40633 11862 ft 386 kts 212°
2025-10-09 13:37 51.06895 31.33672 11862 ft 386 kts 211°
2025-10-09 13:37 51.04655 31.31388 11861 ft 386 kts 211°
2025-10-09 13:37 50.99948 31.27626 11849 ft 364 kts 201°
2025-10-09 13:38 50.95500 31.24585 11840 ft 327 kts 201°
2025-10-09 13:38 50.91321 31.23472 11874 ft 296 kts 166°
2025-10-09 13:39 50.89338 31.24262 11878 ft 297 kts 165°
2025-10-09 13:40 50.81178 31.26179 10390 ft 283 kts 171°
2025-10-09 13:40 50.79250 31.26531 10035 ft 281 kts 171°
2025-10-09 13:40 50.75383 31.27211 9259 ft 277 kts 172°
2025-10-09 13:41 50.71564 31.27872 8502 ft 274 kts 171°
2025-10-09 13:41 50.67789 31.28523 7740 ft 271 kts 172°
2025-10-09 13:42 50.64036 31.29170 6969 ft 269 kts 172°
2025-10-09 13:42 50.62186 31.29491 6603 ft 266 kts 171°
2025-10-09 13:43 50.56678 31.30444 5474 ft 268 kts 172°
2025-10-09 13:43 50.54818 31.30768 5084 ft 267 kts 172°
2025-10-09 13:44 50.49261 31.31733 3953 ft 268 kts 171°
2025-10-09 13:44 50.45575 31.32380 4009 ft 267 kts 172°
2025-10-09 13:45 50.41845 31.33027 3919 ft 264 kts 172°
2025-10-09 13:45 50.38175 31.33671 3922 ft 267 kts 172°
2025-10-09 13:46 50.36342 31.33994 3920 ft 267 kts 172°
2025-10-09 13:46 50.30797 31.34969 3926 ft 265 kts 172°
2025-10-09 13:47 50.28970 31.35291 3898 ft 258 kts 172°
2025-10-09 13:47 50.25541 31.35894 3912 ft 244 kts 171°
2025-10-09 13:48 50.20462 31.36795 3930 ft 246 kts 171°
2025-10-09 13:48 50.17086 31.37394 3933 ft 243 kts 171°
2025-10-09 13:49 50.13819 31.37973 3948 ft 225 kts 171°
2025-10-09 13:49 50.11003 31.38475 3934 ft 220 kts 171°
2025-10-09 13:50 50.07951 31.38198 3927 ft 225 kts 212°
2025-10-09 13:50 50.06689 31.34133 3951 ft 217 kts 284°
2025-10-09 13:51 50.07357 31.32131 3948 ft 208 kts 321°
2025-10-09 13:51 50.09890 31.30041 3893 ft 207 kts 337°
2025-10-09 13:52 50.13695 31.27174 3466 ft 199 kts 330°
2025-10-09 13:52 50.14705 31.23326 3253 ft 211 kts 266°
2025-10-09 13:53 50.14303 31.18693 3053 ft 218 kts 265°
2025-10-09 13:53 50.13884 31.14097 2942 ft 208 kts 269°
2025-10-09 13:54 50.13581 31.09889 2904 ft 187 kts 268°
2025-10-09 13:54 50.13282 31.05766 2923 ft 194 kts 272°
2025-10-09 13:55 50.13074 31.01659 2954 ft 192 kts 271°
2025-10-09 13:55 50.12854 30.97515 2946 ft 190 kts 271°
2025-10-09 13:56 50.12629 30.93369 2929 ft 192 kts 270°
2025-10-09 13:56 50.13251 30.89887 2913 ft 159 kts 334°
2025-10-09 13:57 50.15299 30.88454 2938 ft 166 kts 346°
2025-10-09 13:57 50.17429 30.87658 2965 ft 155 kts 353°
2025-10-09 13:58 50.19504 30.87363 2935 ft 147 kts
2025-10-09 13:58 50.21556 30.87306 2549 ft 146 kts
2025-10-09 13:59 50.22564 30.87325 2298 ft 140 kts
2025-10-09 13:59 50.24374 30.87408 2012 ft 131 kts
2025-10-09 14:00 50.27177 30.87585 1440 ft 132 kts
2025-10-09 14:00 50.29032 30.87716 1055 ft 134 kts
2025-10-09 14:01 50.30940 30.87848 696 ft 139 kts
2025-10-09 14:01 50.32829 30.87985 431 ft 126 kts
2025-10-09 14:02 50.33773 30.88043 430 ft 38 kts
2025-10-09 14:02 50.34008 30.88062 430 ft 26 kts
2025-10-09 14:03 50.34325 30.88090 430 ft 20 kts
2025-10-09 14:03 50.34402 30.88095 430 ft 0 kts
2025-10-09 14:04 50.34426 30.88096 430 ft 0 kts
2025-10-09 14:07 50.34433 30.88097 430 ft 4 kts
2025-10-09 14:08 50.34586 30.88110 430 ft 8 kts
2025-10-09 14:08 50.34702 30.88111 430 ft 8 kts
2025-10-09 14:09 50.34821 30.88114 430 ft 8 kts
2025-10-09 14:09 50.34934 30.88124 430 ft 8 kts